| time (UTC) | temp C | wind direction | speed KPH | gust KPH | rain 1hr cm | rain 24hr cm | rain mn cm | humidity % | barometer mb |
| 20260509041205 | 18 | 209 | 9.7 | 12.9 | 0.00 | 0.00 | 0.00 | 73 | 1013.5 |
| 20260509040704 | 18 | 195 | 12.9 | 16.1 | 0.00 | 0.00 | 0.00 | 73 | 1013.5 |
| 20260509040200 | 18 | 234 | 1.6 | 9.7 | 0.00 | 0.00 | 0.00 | 73 | 1013.7 |
| 20260509035657 | 18 | 239 | 9.7 | 20.9 | 0.00 | 0.00 | 0.00 | 73 | 1013.3 |
| 20260509035153 | 18 | 227 | 12.9 | 17.7 | 0.00 | 0.00 | 0.00 | 73 | 1013.2 |
| 20260509034651 | 18 | 195 | 9.7 | 22.5 | 0.00 | 0.00 | 0.00 | 73 | 1013.0 |
| 20260509034148 | 18 | 197 | 11.3 | 11.3 | 0.00 | 0.00 | 0.00 | 73 | 1013.1 |
| 20260509033645 | 18 | 206 | 9.7 | 14.5 | 0.00 | 0.00 | 0.00 | 73 | 1012.6 |
| 20260509033142 | 18 | 208 | 8.0 | 16.1 | 0.00 | 0.00 | 0.00 | 73 | 1012.6 |
| 20260509032639 | 18 | 203 | 14.5 | 19.3 | 0.00 | 0.00 | 0.00 | 73 | 1012.8 |
| 20260509032136 | 18 | 202 | 14.5 | 16.1 | 0.00 | 0.00 | 0.00 | 73 | 1013.0 |
| 20260509031634 | 18 | 196 | 14.5 | 24.1 | 0.00 | 0.00 | 0.00 | 73 | 1012.8 |
| 20260509031131 | 18 | 208 | 14.5 | 24.1 | 0.00 | 0.00 | 0.00 | 73 | 1012.8 |
| 20260509030629 | 18 | 194 | 6.4 | 22.5 | 0.00 | 0.00 | 0.00 | 73 | 1013.2 |
| 20260509030126 | 18 | 199 | 19.3 | 20.9 | 0.00 | 0.00 | 0.00 | 73 | 1013.3 |
| 20260509025622 | 19 | 179 | 8.0 | 19.3 | 0.00 | 0.00 | 0.00 | 73 | 1013.3 |
| 20260509025118 | 19 | 203 | 9.7 | 22.5 | 0.00 | 0.00 | 0.00 | 73 | 1013.5 |
| 20260509024613 | 19 | 195 | 12.9 | 22.5 | 0.00 | 0.00 | 0.00 | 73 | 1013.0 |
| 20260509024110 | 19 | 146 | 16.1 | 24.1 | 0.00 | 0.00 | 0.00 | 73 | 1013.2 |
| 20260509023608 | 19 | 208 | 17.7 | 22.5 | 0.00 | 0.00 | 0.00 | 73 | 1013.2 |
| 20260509023104 | 19 | 209 | 11.3 | 24.1 | 0.00 | 0.00 | 0.00 | 73 | 1013.1 |
| 20260509022600 | 18 | 195 | 9.7 | 19.3 | 0.00 | 0.00 | 0.00 | 73 | 1013.0 |
| 20260509022059 | 19 | 211 | 14.5 | 19.3 | 0.00 | 0.00 | 0.00 | 73 | 1013.3 |
| 20260509021555 | 19 | 202 | 9.7 | 20.9 | 0.00 | 0.00 | 0.00 | 73 | 1013.2 |
| 20260509021052 | 19 | 180 | 4.8 | 19.3 | 0.00 | 0.00 | 0.00 | 73 | 1013.1 |
| 20260509020551 | 19 | 199 | 12.9 | 22.5 | 0.00 | 0.00 | 0.00 | 73 | 1013.0 |
| 20260509020047 | 19 | 157 | 11.3 | 20.9 | 0.00 | 0.00 | 0.00 | 73 | 1013.2 |
| 20260509015546 | 19 | 206 | 8.0 | 8.0 | 0.00 | 0.00 | 0.00 | 73 | 1013.4 |
| 20260509015043 | 20 | 187 | 14.5 | 22.5 | 0.00 | 0.00 | 0.00 | 73 | 1013.3 |
| 20260509014539 | 20 | 185 | 8.0 | 19.3 | 0.00 | 0.00 | 0.00 | 73 | 1013.2 |
| 20260509014036 | 20 | 180 | 8.0 | 22.5 | 0.00 | 0.00 | 0.00 | 73 | 1013.4 |
| 20260509013533 | 20 | 195 | 9.7 | 14.5 | 0.00 | 0.00 | 0.00 | 74 | 1013.4 |
| 20260509013028 | 20 | 186 | 9.7 | 17.7 | 0.00 | 0.00 | 0.00 | 73 | 1013.4 |
| 20260509012526 | 21 | 166 | 4.8 | 9.7 | 0.00 | 0.00 | 0.00 | 74 | 1013.4 |
| 20260509012022 | 21 | 166 | 4.8 | 9.7 | 0.00 | 0.00 | 0.00 | 74 | 1013.2 |
| 20260509011520 | 21 | 166 | 4.8 | 9.7 | 0.00 | 0.00 | 0.00 | 74 | 1012.7 |
| 20260509011017 | 21 | 166 | 4.8 | 9.7 | 0.00 | 0.00 | 0.00 | 74 | 1012.7 |
| 20260509010515 | 21 | 166 | 4.8 | 9.7 | 0.00 | 0.00 | 0.00 | 74 | 1012.4 |
| 20260509010011 | 21 | 166 | 4.8 | 9.7 | 0.00 | 0.00 | 0.00 | 74 | 1012.8 |
| 20260509005510 | 21 | 195 | 4.8 | 6.4 | 0.00 | 0.00 | 0.00 | 74 | 1013.1 |
| 20260509005009 | 21 | 195 | 4.8 | 6.4 | 0.00 | 0.00 | 0.00 | 74 | 1013.3 |
| 20260509004506 | 21 | 205 | 9.7 | 12.9 | 0.00 | 0.00 | 0.00 | 74 | 1013.2 |
| 20260509004004 | 21 | 203 | 14.5 | 17.7 | 0.00 | 0.00 | 0.00 | 74 | 1013.1 |
| 20260509003502 | 22 | 226 | 11.3 | 17.7 | 0.00 | 0.00 | 0.00 | 74 | 1013.0 |
| 20260509002958 | 22 | 226 | 11.3 | 17.7 | 0.00 | 0.00 | 0.00 | 74 | 1013.3 |
| 20260509002456 | 22 | 226 | 11.3 | 17.7 | 0.00 | 0.00 | 0.00 | 74 | 1013.2 |
| 20260509001953 | 22 | 226 | 11.3 | 17.7 | 0.00 | 0.00 | 0.00 | 74 | 1013.4 |
| 20260509001450 | 22 | 226 | 11.3 | 17.7 | 0.00 | 0.00 | 0.00 | 74 | 1013.2 |
| 20260509000946 | 22 | 217 | 16.1 | 16.1 | 0.00 | 0.00 | 0.00 | 74 | 1013.3 |
| 20260509000447 | 22 | 207 | 6.4 | 16.1 | 0.00 | 0.00 | 0.00 | 74 | 1012.8 |
| 20260508235940 | 22 | 209 | 8.0 | 16.1 | 0.00 | 0.00 | 0.00 | 74 | 1013.0 |
| 20260508235438 | 22 | 222 | 12.9 | 17.7 | 0.00 | 0.00 | 0.00 | 74 | 1012.8 |
| 20260508234934 | 22 | 204 | 12.9 | 20.9 | 0.00 | 0.00 | 0.00 | 74 | 1012.7 |
| 20260508234431 | 23 | 200 | 11.3 | 24.1 | 0.00 | 0.00 | 0.00 | 74 | 1012.8 |
| 20260508233929 | 23 | 205 | 8.0 | 16.1 | 0.00 | 0.00 | 0.00 | 74 | 1012.7 |
| 20260508233429 | 23 | 158 | 14.5 | 24.1 | 0.00 | 0.00 | 0.00 | 74 | 1013.0 |
| 20260508232925 | 23 | 205 | 16.1 | 19.3 | 0.00 | 0.00 | 0.00 | 74 | 1012.6 |
| 20260508232422 | 23 | 214 | 4.8 | 24.1 | 0.00 | 0.00 | 0.00 | 74 | 1012.6 |
| 20260508231919 | 23 | 189 | 9.7 | 12.9 | 0.00 | 0.00 | 0.00 | 74 | 1012.8 |
| 20260508231416 | 23 | 201 | 14.5 | 16.1 | 0.00 | 0.00 | 0.00 | 74 | 1012.8 |
| 20260508230913 | 23 | 209 | 4.8 | 20.9 | 0.00 | 0.00 | 0.00 | 74 | 1013.2 |
| 20260508230410 | 23 | 203 | 4.8 | 9.7 | 0.00 | 0.00 | 0.00 | 74 | 1013.1 |
| 20260508225907 | 23 | 203 | 19.3 | 25.7 | 0.00 | 0.00 | 0.00 | 74 | 1013.2 |
| 20260508225403 | 23 | 200 | 16.1 | 17.7 | 0.00 | 0.00 | 0.00 | 74 | 1013.3 |
| 20260508224901 | 23 | 205 | 11.3 | 16.1 | 0.00 | 0.00 | 0.00 | 74 | 1013.3 |
| 20260508224358 | 24 | 244 | 11.3 | 20.9 | 0.00 | 0.00 | 0.00 | 74 | 1013.3 |
| 20260508223856 | 23 | 194 | 9.7 | 14.5 | 0.00 | 0.00 | 0.00 | 74 | 1013.2 |
| 20260508223353 | 23 | 159 | 9.7 | 17.7 | 0.00 | 0.00 | 0.00 | 74 | 1013.5 |
| 20260508222851 | 23 | 257 | 6.4 | 12.9 | 0.00 | 0.00 | 0.00 | 74 | 1013.5 |
| 20260508222348 | 23 | 208 | 4.8 | 19.3 | 0.00 | 0.00 | 0.00 | 74 | 1013.7 |
| 20260508221844 | 24 | 213 | 14.5 | 24.1 | 0.00 | 0.00 | 0.00 | 74 | 1013.4 |
| 20260508221340 | 23 | 231 | 17.7 | 17.7 | 0.00 | 0.00 | 0.00 | 74 | 1013.5 |
| 20260508220836 | 23 | 213 | 6.4 | 17.7 | 0.00 | 0.00 | 0.00 | 74 | 1013.5 |
| 20260508220333 | 23 | 196 | 12.9 | 14.5 | 0.00 | 0.00 | 0.00 | 74 | 1013.6 |
| 20260508215829 | 23 | 214 | 14.5 | 19.3 | 0.00 | 0.00 | 0.00 | 74 | 1013.4 |
| 20260508215326 | 23 | 195 | 8.0 | 16.1 | 0.00 | 0.00 | 0.00 | 74 | 1013.6 |
| 20260508214823 | 24 | 250 | 6.4 | 16.1 | 0.00 | 0.00 | 0.00 | 75 | 1013.6 |
| 20260508214320 | 23 | 182 | 6.4 | 12.9 | 0.00 | 0.00 | 0.00 | 74 | 1013.6 |
| 20260508213817 | 24 | 148 | 8.0 | 8.0 | 0.00 | 0.00 | 0.00 | 75 | 1013.6 |
| 20260508213314 | 23 | 221 | 11.3 | 17.7 | 0.00 | 0.00 | 0.00 | 74 | 1013.5 |
| 20260508212810 | 24 | 138 | 4.8 | 8.0 | 0.00 | 0.00 | 0.00 | 75 | 1013.7 |
| 20260508212306 | 23 | 244 | 8.0 | 11.3 | 0.00 | 0.00 | 0.00 | 74 | 1013.7 |
| 20260508211802 | 23 | 186 | 8.0 | 20.9 | 0.00 | 0.00 | 0.00 | 74 | 1013.7 |
| 20260508211258 | 23 | 202 | 9.7 | 22.5 | 0.00 | 0.00 | 0.00 | 74 | 1013.9 |
| 20260508210756 | 23 | 249 | 16.1 | 19.3 | 0.00 | 0.00 | 0.00 | 74 | 1013.9 |
| 20260508210252 | 23 | 215 | 11.3 | 14.5 | 0.00 | 0.00 | 0.00 | 74 | 1014.1 |
| 20260508205749 | 23 | 221 | 9.7 | 20.9 | 0.00 | 0.00 | 0.00 | 74 | 1014.0 |
| 20260508205245 | 24 | 233 | 4.8 | 14.5 | 0.00 | 0.00 | 0.00 | 74 | 1014.0 |
| 20260508204742 | 23 | 221 | 8.0 | 11.3 | 0.00 | 0.00 | 0.00 | 74 | 1014.0 |
| 20260508204238 | 23 | 172 | 8.0 | 16.1 | 0.00 | 0.00 | 0.00 | 74 | 1014.2 |
| 20260508203734 | 23 | 207 | 12.9 | 25.7 | 0.00 | 0.00 | 0.00 | 74 | 1014.4 |
| 20260508203231 | 23 | 202 | 6.4 | 8.0 | 0.00 | 0.00 | 0.00 | 74 | 1014.4 |
| 20260508202727 | 24 | 245 | 6.4 | 9.7 | 0.00 | 0.00 | 0.00 | 74 | 1014.6 |
| 20260508202224 | 23 | 213 | 9.7 | 19.3 | 0.00 | 0.00 | 0.00 | 74 | 1014.4 |
| 20260508201721 | 23 | 222 | 16.1 | 19.3 | 0.00 | 0.00 | 0.00 | 74 | 1014.7 |
| 20260508201217 | 23 | 203 | 9.7 | 20.9 | 0.00 | 0.00 | 0.00 | 74 | 1014.6 |
| 20260508200714 | 23 | 198 | 9.7 | 17.7 | 0.00 | 0.00 | 0.00 | 74 | 1014.6 |
| 20260508200211 | 23 | 243 | 14.5 | 19.3 | 0.00 | 0.00 | 0.00 | 74 | 1014.8 |
| 20260508195707 | 22 | 197 | 9.7 | 32.2 | 0.00 | 0.00 | 0.00 | 74 | 1014.8 |
| 20260508195204 | 22 | 207 | 12.9 | 20.9 | 0.00 | 0.00 | 0.00 | 74 | 1015.1 |
| 20260508194700 | 23 | 215 | 11.3 | 12.9 | 0.00 | 0.00 | 0.00 | 74 | 1015.2 |
| 20260508194157 | 23 | 206 | 14.5 | 14.5 | 0.00 | 0.00 | 0.00 | 74 | 1015.3 |
| 20260508193654 | 23 | 205 | 9.7 | 22.5 | 0.00 | 0.00 | 0.00 | 74 | 1015.3 |
| 20260508193151 | 22 | 191 | 11.3 | 17.7 | 0.00 | 0.00 | 0.00 | 74 | 1015.3 |
| 20260508192647 | 22 | 203 | 4.8 | 22.5 | 0.00 | 0.00 | 0.00 | 74 | 1015.2 |
| 20260508192145 | 23 | 220 | 4.8 | 27.4 | 0.00 | 0.00 | 0.00 | 74 | 1015.4 |
| 20260508191642 | 22 | 154 | 8.0 | 20.9 | 0.00 | 0.00 | 0.00 | 74 | 1015.6 |
| 20260508191138 | 22 | 196 | 9.7 | 22.5 | 0.00 | 0.00 | 0.00 | 74 | 1015.6 |
| 20260508190636 | 22 | 200 | 16.1 | 32.2 | 0.00 | 0.00 | 0.00 | 74 | 1015.7 |
| 20260508190132 | 22 | 201 | 11.3 | 16.1 | 0.00 | 0.00 | 0.00 | 74 | 1015.6 |
| 20260508185629 | 22 | 201 | 9.7 | 22.5 | 0.00 | 0.00 | 0.00 | 74 | 1016.0 |
| 20260508185126 | 23 | 255 | 9.7 | 16.1 | 0.00 | 0.00 | 0.00 | 74 | 1015.8 |
| 20260508184623 | 22 | 206 | 4.8 | 24.1 | 0.00 | 0.00 | 0.00 | 74 | 1015.8 |
| 20260508184120 | 21 | 153 | 9.7 | 17.7 | 0.00 | 0.00 | 0.00 | 74 | 1016.1 |
| 20260508183617 | 22 | 201 | 14.5 | 20.9 | 0.00 | 0.00 | 0.00 | 74 | 1016.1 |
| 20260508183113 | 21 | 206 | 11.3 | 17.7 | 0.00 | 0.00 | 0.00 | 74 | 1016.0 |
| 20260508182609 | 21 | 183 | 8.0 | 27.4 | 0.00 | 0.00 | 0.00 | 74 | 1016.5 |
| 20260508182106 | 21 | 206 | 11.3 | 16.1 | 0.00 | 0.00 | 0.00 | 74 | 1016.4 |
| 20260508181601 | 21 | 213 | 12.9 | 19.3 | 0.00 | 0.00 | 0.00 | 74 | 1016.1 |
| 20260508181059 | 21 | 200 | 12.9 | 16.1 | 0.00 | 0.00 | 0.00 | 74 | 1016.4 |
| 20260508180555 | 21 | 186 | 8.0 | 22.5 | 0.00 | 0.00 | 0.00 | 74 | 1016.5 |
| 20260508180052 | 21 | 187 | 11.3 | 24.1 | 0.00 | 0.00 | 0.00 | 74 | 1016.7 |
| 20260508175548 | 22 | 241 | 12.9 | 17.7 | 0.00 | 0.00 | 0.00 | 74 | 1016.8 |
| 20260508175046 | 21 | 107 | 9.7 | 14.5 | 0.00 | 0.00 | 0.00 | 74 | 1016.8 |
| 20260508174543 | 21 | 225 | 12.9 | 24.1 | 0.00 | 0.00 | 0.00 | 74 | 1016.7 |
| 20260508174040 | 21 | 219 | 20.9 | 22.5 | 0.00 | 0.00 | 0.00 | 74 | 1016.9 |
| 20260508173537 | 20 | 220 | 19.3 | 27.4 | 0.00 | 0.00 | 0.00 | 74 | 1017.1 |
| 20260508173033 | 21 | 199 | 20.9 | 25.7 | 0.00 | 0.00 | 0.00 | 74 | 1016.9 |
| 20260508172530 | 21 | 201 | 8.0 | 19.3 | 0.00 | 0.00 | 0.00 | 74 | 1017.1 |
| 20260508172027 | 20 | 277 | 11.3 | 22.5 | 0.00 | 0.00 | 0.00 | 74 | 1017.3 |
| 20260508171523 | 21 | 228 | 8.0 | 20.9 | 0.00 | 0.00 | 0.00 | 74 | 1017.6 |
| 20260508171020 | 20 | 225 | 14.5 | 22.5 | 0.00 | 0.00 | 0.00 | 74 | 1017.6 |
| 20260508170517 | 21 | 198 | 8.0 | 27.4 | 0.00 | 0.00 | 0.00 | 74 | 1017.5 |
| 20260508170015 | 20 | 246 | 29.0 | 29.0 | 0.00 | 0.00 | 0.00 | 74 | 1017.5 |
| 20260508165512 | 20 | 230 | 11.3 | 24.1 | 0.00 | 0.00 | 0.00 | 74 | 1017.7 |
| 20260508165008 | 20 | 229 | 11.3 | 24.1 | 0.00 | 0.00 | 0.00 | 74 | 1017.9 |
| 20260508164505 | 20 | 200 | 12.9 | 30.6 | 0.00 | 0.00 | 0.00 | 74 | 1018.0 |
| 20260508164001 | 21 | 206 | 8.0 | 9.7 | 0.00 | 0.00 | 0.00 | 74 | 1018.2 |
| 20260508163459 | 20 | 215 | 11.3 | 11.3 | 0.00 | 0.00 | 0.00 | 74 | 1018.1 |
| 20260508162955 | 20 | 228 | 8.0 | 24.1 | 0.00 | 0.00 | 0.00 | 74 | 1018.3 |
| 20260508162453 | 20 | 206 | 4.8 | 17.7 | 0.00 | 0.00 | 0.00 | 74 | 1018.0 |
| 20260508161949 | 19 | 260 | 11.3 | 27.4 | 0.00 | 0.00 | 0.00 | 73 | 1018.3 |
| 20260508161446 | 20 | 217 | 12.9 | 27.4 | 0.00 | 0.00 | 0.00 | 73 | 1018.3 |
| 20260508160943 | 19 | 210 | 11.3 | 29.0 | 0.00 | 0.00 | 0.00 | 73 | 1018.6 |
| 20260508160443 | 19 | 225 | 6.4 | 27.4 | 0.00 | 0.00 | 0.00 | 73 | 1018.5 |
| 20260508155938 | 18 | 250 | 20.9 | 29.0 | 0.00 | 0.00 | 0.00 | 73 | 1018.4 |
| 20260508155436 | 18 | 231 | 27.4 | 37.0 | 0.00 | 0.00 | 0.00 | 73 | 1018.7 |
| 20260508154932 | 18 | 239 | 14.5 | 32.2 | 0.00 | 0.00 | 0.00 | 73 | 1018.7 |
| 20260508154430 | 18 | 211 | 11.3 | 24.1 | 0.00 | 0.00 | 0.00 | 73 | 1018.7 |
| 20260508153926 | 18 | 205 | 22.5 | 27.4 | 0.00 | 0.00 | 0.00 | 73 | 1018.7 |
| 20260508153423 | 18 | 245 | 12.9 | 29.0 | 0.00 | 0.00 | 0.00 | 73 | 1018.6 |
| 20260508152919 | 18 | 239 | 9.7 | 25.7 | 0.00 | 0.00 | 0.00 | 73 | 1018.7 |
| 20260508152416 | 18 | 215 | 9.7 | 37.0 | 0.00 | 0.00 | 0.00 | 73 | 1018.7 |
| 20260508151913 | 18 | 198 | 20.9 | 27.4 | 0.00 | 0.00 | 0.00 | 73 | 1018.6 |
| 20260508151410 | 18 | 201 | 22.5 | 24.1 | 0.00 | 0.00 | 0.00 | 73 | 1018.8 |
| 20260508150906 | 17 | 190 | 4.8 | 25.7 | 0.00 | 0.00 | 0.00 | 73 | 1018.9 |
| 20260508150403 | 17 | 219 | 14.5 | 27.4 | 0.00 | 0.00 | 0.00 | 73 | 1018.9 |
| 20260508145859 | 17 | 222 | 22.5 | 29.0 | 0.00 | 0.00 | 0.00 | 73 | 1018.8 |
| 20260508145355 | 17 | 211 | 17.7 | 29.0 | 0.00 | 0.00 | 0.00 | 73 | 1019.1 |
| 20260508144852 | 17 | 223 | 25.7 | 35.4 | 0.00 | 0.00 | 0.00 | 73 | 1019.1 |
| 20260508144350 | 17 | 229 | 8.0 | 24.1 | 0.00 | 0.00 | 0.00 | 73 | 1019.3 |
| 20260508143847 | 17 | 225 | 12.9 | 24.1 | 0.00 | 0.00 | 0.00 | 73 | 1019.2 |
| 20260508143344 | 17 | 270 | 4.8 | 22.5 | 0.00 | 0.00 | 0.00 | 73 | 1019.2 |
| 20260508142841 | 16 | 203 | 11.3 | 24.1 | 0.00 | 0.00 | 0.00 | 73 | 1019.3 |
| 20260508142338 | 16 | 191 | 8.0 | 24.1 | 0.00 | 0.00 | 0.00 | 73 | 1019.2 |
| 20260508141834 | 16 | 222 | 11.3 | 19.3 | 0.00 | 0.00 | 0.00 | 73 | 1019.1 |
| 20260508141331 | 16 | 225 | 12.9 | 16.1 | 0.00 | 0.00 | 0.00 | 73 | 1019.3 |
| 20260508140829 | 16 | 203 | 11.3 | 19.3 | 0.00 | 0.00 | 0.00 | 73 | 1019.4 |
| 20260508140326 | 15 | 211 | 16.1 | 29.0 | 0.00 | 0.00 | 0.00 | 73 | 1019.4 |
| 20260508135821 | 15 | 200 | 11.3 | 25.7 | 0.00 | 0.00 | 0.00 | 73 | 1019.5 |
| 20260508135318 | 15 | 243 | 14.5 | 29.0 | 0.00 | 0.00 | 0.00 | 73 | 1019.4 |
| 20260508134814 | 15 | 222 | 20.9 | 20.9 | 0.00 | 0.00 | 0.00 | 73 | 1019.4 |
| 20260508134311 | 15 | 207 | 9.7 | 27.4 | 0.00 | 0.00 | 0.00 | 73 | 1019.4 |
| 20260508133807 | 15 | 220 | 14.5 | 20.9 | 0.00 | 0.00 | 0.00 | 73 | 1019.6 |
| 20260508133306 | 15 | 240 | 8.0 | 20.9 | 0.00 | 0.00 | 0.00 | 73 | 1019.8 |
| 20260508132803 | 15 | 203 | 4.8 | 17.7 | 0.00 | 0.00 | 0.00 | 73 | 1019.9 |
| 20260508132300 | 15 | 203 | 4.8 | 17.7 | 0.00 | 0.00 | 0.00 | 73 | 1019.6 |
| 20260508131756 | 14 | 223 | 12.9 | 20.9 | 0.00 | 0.00 | 0.00 | 72 | 1019.8 |
| 20260508131252 | 14 | 223 | 12.9 | 20.9 | 0.00 | 0.00 | 0.00 | 72 | 1019.7 |
| 20260508130749 | 14 | 247 | 6.4 | 8.0 | 0.00 | 0.00 | 0.00 | 72 | 1019.7 |
| 20260508130246 | 13 | 225 | 17.7 | 17.7 | 0.00 | 0.00 | 0.00 | 72 | 1019.6 |
| 20260508125741 | 13 | 227 | 12.9 | 16.1 | 0.00 | 0.00 | 0.00 | 72 | 1019.7 |
| 20260508125238 | 13 | 229 | 6.4 | 8.0 | 0.00 | 0.00 | 0.00 | 72 | 1019.5 |
| 20260508124737 | 13 | 229 | 6.4 | 8.0 | 0.00 | 0.00 | 0.00 | 72 | 1019.6 |
| 20260508124233 | -17 | 0.0 | 0.0 | 0.00 | 0.00 | 0.00 | 1019.6 | ||
| 20260508123732 | -17 | 0.0 | 0.0 | 0.00 | 0.00 | 0.00 | 1019.5 | ||
| 20260508123229 | -17 | 0.0 | 0.0 | 0.00 | 0.00 | 0.00 | 1019.6 | ||
| 20260508122725 | -17 | 0.0 | 0.0 | 0.00 | 0.00 | 0.00 | 1019.3 | ||
| 20260508122222 | -17 | 0.0 | 0.0 | 0.00 | 0.00 | 0.00 | 1019.6 | ||
| 20260508121720 | -17 | 0.0 | 0.0 | 0.00 | 0.00 | 0.00 | 1019.5 | ||
| 20260508121218 | -17 | 0.0 | 0.0 | 0.00 | 0.00 | 0.00 | 1019.6 | ||
| 20260508120715 | -17 | 0.0 | 0.0 | 0.00 | 0.00 | 0.00 | 1019.5 | ||
| 20260508120213 | -17 | 0.0 | 0.0 | 0.00 | 0.00 | 0.00 | 1019.5 | ||
| 20260508115710 | -17 | 0.0 | 0.0 | 0.00 | 0.00 | 0.00 | 1019.6 | ||
| 20260508115207 | -17 | 0.0 | 0.0 | 0.00 | 0.00 | 0.00 | 1019.6 | ||
| 20260508114704 | -17 | 0.0 | 0.0 | 0.00 | 0.00 | 0.00 | 1019.5 | ||
| 20260508114201 | -17 | 0.0 | 0.0 | 0.00 | 0.00 | 0.00 | 1019.3 | ||
| 20260508113657 | -17 | 0.0 | 0.0 | 0.00 | 0.00 | 0.00 | 1019.4 | ||
| 20260508113156 | -17 | 0.0 | 0.0 | 0.00 | 0.00 | 0.00 | 1019.5 | ||
| 20260508112652 | -17 | 0.0 | 0.0 | 0.00 | 0.00 | 0.00 | 1019.1 | ||
| 20260508112149 | -17 | 0.0 | 0.0 | 0.00 | 0.00 | 0.00 | 1019.3 | ||
| 20260508111645 | -17 | 0.0 | 0.0 | 0.00 | 0.00 | 0.00 | 1019.3 | ||
| 20260508111143 | -17 | 0.0 | 0.0 | 0.00 | 0.00 | 0.00 | 1018.9 | ||
| 20260508110640 | -17 | 0.0 | 0.0 | 0.00 | 0.00 | 0.00 | 1018.9 | ||
| 20260508110137 | -17 | 0.0 | 0.0 | 0.00 | 0.00 | 0.00 | 1018.8 | ||
| 20260508105631 | -17 | 0.0 | 0.0 | 0.00 | 0.00 | 0.00 | 1019.1 | ||
| 20260508105129 | -17 | 0.0 | 0.0 | 0.00 | 0.00 | 0.00 | 1018.8 | ||
| 20260508104626 | -17 | 0.0 | 0.0 | 0.00 | 0.00 | 0.00 | 1018.7 | ||
| 20260508104123 | -17 | 0.0 | 0.0 | 0.00 | 0.00 | 0.00 | 1018.9 | ||
| 20260508103620 | -17 | 0.0 | 0.0 | 0.00 | 0.00 | 0.00 | 1018.6 | ||
| 20260508103117 | -17 | 0.0 | 0.0 | 0.00 | 0.00 | 0.00 | 1018.6 | ||
| 20260508102614 | -17 | 0.0 | 0.0 | 0.00 | 0.00 | 0.00 | 1018.6 | ||
| 20260508102112 | -17 | 0.0 | 0.0 | 0.00 | 0.00 | 0.00 | 1018.8 | ||
| 20260508101609 | -17 | 0.0 | 0.0 | 0.00 | 0.00 | 0.00 | 1018.8 | ||
| 20260508101107 | -17 | 0.0 | 0.0 | 0.00 | 0.00 | 0.00 | 1018.6 | ||
| 20260508100604 | -17 | 0.0 | 0.0 | 0.00 | 0.00 | 0.00 | 1018.7 | ||
| 20260508095558 | -17 | 0.0 | 0.0 | 0.00 | 0.00 | 0.00 | 1018.8 | ||
| 20260508095055 | -17 | 0.0 | 0.0 | 0.00 | 0.00 | 0.00 | 1018.9 | ||
| 20260508094552 | -17 | 0.0 | 0.0 | 0.00 | 0.00 | 0.00 | 1018.8 | ||
| 20260508094049 | -17 | 0.0 | 0.0 | 0.00 | 0.00 | 0.00 | 1018.9 | ||
| 20260508093546 | -17 | 0.0 | 0.0 | 0.00 | 0.00 | 0.00 | 1018.9 | ||
| 20260508093044 | -17 | 0.0 | 0.0 | 0.00 | 0.00 | 0.00 | 1019.1 | ||
| 20260508092541 | -17 | 0.0 | 0.0 | 0.00 | 0.00 | 0.00 | 1018.9 | ||
| 20260508092040 | -17 | 0.0 | 0.0 | 0.00 | 0.00 | 0.00 | 1019.2 | ||
| 20260508091536 | -17 | 0.0 | 0.0 | 0.00 | 0.00 | 0.00 | 1019.2 | ||
| 20260508091033 | -17 | 0.0 | 0.0 | 0.00 | 0.00 | 0.00 | 1019.1 | ||
| 20260508090531 | -17 | 0.0 | 0.0 | 0.00 | 0.00 | 0.00 | 1019.3 | ||
| 20260508090028 | -17 | 0.0 | 0.0 | 0.00 | 0.00 | 0.00 | 1019.1 | ||
| 20260508085524 | -17 | 0.0 | 0.0 | 0.00 | 0.00 | 0.00 | 1018.9 | ||
| 20260508085021 | -17 | 0.0 | 0.0 | 0.00 | 0.00 | 0.00 | 1019.1 | ||
| 20260508084518 | -17 | 0.0 | 0.0 | 0.00 | 0.00 | 0.00 | 1018.7 | ||
| 20260508084016 | -17 | 0.0 | 0.0 | 0.00 | 0.00 | 0.00 | 1018.7 | ||
| 20260508083512 | -17 | 0.0 | 0.0 | 0.00 | 0.00 | 0.00 | 1018.9 | ||
| 20260508083009 | -17 | 0.0 | 0.0 | 0.00 | 0.00 | 0.00 | 1018.8 | ||
| 20260508082505 | -17 | 0.0 | 0.0 | 0.00 | 0.00 | 0.00 | 1018.7 | ||
| 20260508082003 | -17 | 0.0 | 0.0 | 0.00 | 0.00 | 0.00 | 1018.8 | ||
| 20260508081500 | -17 | 0.0 | 0.0 | 0.00 | 0.00 | 0.00 | 1018.9 | ||
| 20260508080955 | -17 | 0.0 | 0.0 | 0.00 | 0.00 | 0.00 | 1019.1 | ||
| 20260508080454 | -17 | 0.0 | 0.0 | 0.00 | 0.00 | 0.00 | 1018.9 | ||
| 20260508075950 | -17 | 0.0 | 0.0 | 0.00 | 0.00 | 0.00 | 1019.2 | ||
| 20260508075447 | -17 | 0.0 | 0.0 | 0.00 | 0.00 | 0.00 | 1019.1 | ||
| 20260508074945 | -17 | 0.0 | 0.0 | 0.00 | 0.00 | 0.00 | 1018.8 | ||
| 20260508074443 | -17 | 0.0 | 0.0 | 0.00 | 0.00 | 0.00 | 1018.9 | ||
| 20260508073939 | -17 | 0.0 | 0.0 | 0.00 | 0.00 | 0.00 | 1019.1 | ||
| 20260508073437 | -17 | 0.0 | 0.0 | 0.00 | 0.00 | 0.00 | 1019.1 | ||
| 20260508072934 | -17 | 0.0 | 0.0 | 0.00 | 0.00 | 0.00 | 1019.3 | ||
| 20260508072430 | -17 | 0.0 | 0.0 | 0.00 | 0.00 | 0.00 | 1019.5 | ||
| 20260508071927 | -17 | 0.0 | 0.0 | 0.00 | 0.00 | 0.00 | 1019.5 | ||
| 20260508071425 | -17 | 0.0 | 0.0 | 0.00 | 0.00 | 0.00 | 1019.7 | ||
| 20260508070923 | -17 | 0.0 | 0.0 | 0.00 | 0.00 | 0.00 | 1019.8 | ||
| 20260508070421 | -17 | 0.0 | 0.0 | 0.00 | 0.00 | 0.00 | 1019.9 | ||
| 20260508065918 | -17 | 0.0 | 0.0 | 0.00 | 0.00 | 0.00 | 1019.9 | ||
| 20260508065416 | -17 | 0.0 | 0.0 | 0.00 | 0.00 | 0.00 | 1019.8 | ||
| 20260508064914 | -17 | 0.0 | 0.0 | 0.00 | 0.00 | 0.00 | 1019.9 | ||
| 20260508064411 | -17 | 0.0 | 0.0 | 0.00 | 0.00 | 0.00 | 1020.1 | ||
| 20260508063909 | -17 | 0.0 | 0.0 | 0.00 | 0.00 | 0.00 | 1020.0 | ||
| 20260508063406 | -17 | 0.0 | 0.0 | 0.00 | 0.00 | 0.00 | 1020.2 | ||
| 20260508062903 | -17 | 0.0 | 0.0 | 0.00 | 0.00 | 0.00 | 1020.1 | ||
| 20260508062401 | -17 | 0.0 | 0.0 | 0.00 | 0.00 | 0.00 | 1020.0 | ||
| 20260508061857 | -17 | 0.0 | 0.0 | 0.00 | 0.00 | 0.00 | 1020.2 | ||
| 20260508061355 | -17 | 0.0 | 0.0 | 0.00 | 0.00 | 0.00 | 1020.1 | ||
| 20260508060851 | -17 | 0.0 | 0.0 | 0.00 | 0.00 | 0.00 | 1020.2 | ||
| 20260508060349 | -17 | 0.0 | 0.0 | 0.00 | 0.00 | 0.00 | 1020.3 | ||
| 20260508055844 | -17 | 0.0 | 0.0 | 0.00 | 0.00 | 0.00 | 1020.1 | ||
| 20260508055342 | -17 | 0.0 | 0.0 | 0.00 | 0.00 | 0.00 | 1020.2 | ||
| 20260508054838 | -17 | 0.0 | 0.0 | 0.00 | 0.00 | 0.00 | 1020.0 | ||
| 20260508054336 | -17 | 0.0 | 0.0 | 0.00 | 0.00 | 0.00 | 1020.1 | ||
| 20260508053832 | -17 | 0.0 | 0.0 | 0.00 | 0.00 | 0.00 | 1020.1 | ||
| 20260508053330 | -17 | 0.0 | 0.0 | 0.00 | 0.00 | 0.00 | 1020.3 | ||
| 20260508052827 | -17 | 0.0 | 0.0 | 0.00 | 0.00 | 0.00 | 1019.9 | ||
| 20260508052324 | -17 | 0.0 | 0.0 | 0.00 | 0.00 | 0.00 | 1020.3 | ||
| 20260508051820 | -17 | 0.0 | 0.0 | 0.00 | 0.00 | 0.00 | 1020.1 | ||
| 20260508051316 | -17 | 0.0 | 0.0 | 0.00 | 0.00 | 0.00 | 1020.2 | ||
| 20260508050812 | -17 | 0.0 | 0.0 | 0.00 | 0.00 | 0.00 | 1020.2 | ||
| 20260508050310 | -17 | 0.0 | 0.0 | 0.00 | 0.00 | 0.00 | 1020.2 | ||
| 20260508045805 | -17 | 0.0 | 0.0 | 0.00 | 0.00 | 0.00 | 1020.3 | ||
| 20260508045306 | -17 | 0.0 | 0.0 | 0.00 | 0.00 | 0.00 | 1020.2 | ||
| 20260508044801 | -17 | 0.0 | 0.0 | 0.00 | 0.00 | 0.00 | 1020.4 | ||
| 20260508044257 | -17 | 0.0 | 0.0 | 0.00 | 0.00 | 0.00 | 1020.5 | ||
| 20260508043753 | -17 | 0.0 | 0.0 | 0.00 | 0.00 | 0.00 | 1020.3 | ||
| 20260508043251 | -17 | 0.0 | 0.0 | 0.00 | 0.00 | 0.00 | 1020.3 | ||
| 20260508042747 | -17 | 0.0 | 0.0 | 0.00 | 0.00 | 0.00 | 1020.4 | ||
| 20260508042245 | -17 | 0.0 | 0.0 | 0.00 | 0.00 | 0.00 | 1020.3 | ||
| 20260508041741 | -17 | 0.0 | 0.0 | 0.00 | 0.00 | 0.00 | 1020.3 | ||
| 20260508041238 | -17 | 0.0 | 0.0 | 0.00 | 0.00 | 0.00 | 1020.2 |